Home   Weather   Rüsselsheim   Past weeks

Flag for Germany Past Weather in Rüsselsheim, Hesse, Germany — Yesterday and Last 2 Weeks

Now
58 °F

Sunny.


Feels Like: 57 °F
Forecast: 52 / 71 °F
Wind: 5 mph from North

Location: Wiesbaden Airport

Current Time: Sep 27, 2016 at 9:05:18 AM

Latest Report: Sep 27, 2016 at 7:58 AM


Visibility: N/A

Pressure: 30.26 "Hg

Humidity: 72%

Dew Point: 48 °F

Location of RüsselsheimLocation

Past Weather in Rüsselsheim — Graph

°F

Rüsselsheim Temperature Yesterday

Maximum temperature yesterday: 68 °F (at 2:58 PM)
Minimum temperature yesterday: 59 °F (at 5:58 AM)
Average temperature yesterday: 63 °F

High & Low Weather Summary for the Past Weeks

 TemperatureHumidityPressure
High90 °F (Sep 13, 4:58 PM)87% (Sep 24, 6:58 AM)30.34 "Hg (Sep 24, 6:58 AM)
Low45 °F (Sep 22, 5:58 AM)24% (Sep 13, 4:58 PM)29.82 "Hg (Sep 15, 3:58 AM)
Average64 °F57%30.06 "Hg
* Reported Sep 12 7:58 AM — Sep 27 7:58 AM, Rüsselsheim, Weather by CustomWeather, © 2016

Note: Actual official high and low records may vary slightly from our data, if they occured in-between our weather recording intervals... More about our weather records

Advertising

Rüsselsheim Weather History for the Previous 24 Hours

Scroll right to see more
 ConditionsComfort  
Time TempWeatherWind HumidityBarometerVisibility
7:58 AM
Tue, Sep 27
58 °FSunny.5 mph72%30.26 "HgN/A
6:58 AM59 °FPassing clouds.3 mph70%30.25 "HgN/A
5:58 AM58 °FPassing clouds.No wind72%30.24 "HgN/A
4:58 AM58 °FClear.3 mph68%30.22 "HgN/A
3:58 AM59 °FPassing clouds.5 mph68%30.22 "HgN/A
2:58 AM60 °FPassing clouds.No wind68%30.22 "HgN/A
1:58 AM61 °FPassing clouds.1 mph63%30.22 "HgN/A
12:58 AM61 °FOvercast.3 mph63%30.21 "HgN/A
11:58 PM
Mon, Sep 26
62 °FPartly cloudy.3 mph61%30.21 "HgN/A
10:58 PM63 °FPartly cloudy.3 mph60%30.21 "HgN/A
9:58 PM63 °FOvercast.3 mph64%30.22 "HgN/A
8:58 PM64 °FOvercast.No wind60%30.21 "HgN/A
7:58 PM64 °FPassing clouds.5 mph57%30.19 "HgN/A
6:58 PM66 °FOvercast.3 mph52%30.19 "HgN/A
5:58 PM68 °FPassing clouds.5 mph49%30.18 "HgN/A
4:58 PM68 °FSunny.5 mph49%30.18 "HgN/A
3:58 PM68 °FPassing clouds.3 mph49%30.19 "HgN/A
2:58 PM68 °FScattered clouds.3 mph46%30.20 "HgN/A
1:58 PM66 °FPassing clouds.3 mph52%30.20 "HgN/A
12:58 PM66 °FPassing clouds.5 mph50%30.21 "HgN/A
11:58 AM62 °FOvercast.8 mph59%30.22 "HgN/A
10:58 AM63 °FOvercast.7 mph59%30.22 "HgN/A
9:58 AM61 °FBroken clouds.10 mph62%30.21 "HgN/A
9:00 AM61 °FOvercast.7 mph63%30.21 "HgN/A
Weather by CustomWeather, © 2016

See weather overviewHow to use our weather pages